TimeMST,TemperatureF,Dew PointF,Humidity,Sea Level PressureIn,VisibilityMPH,Wind Direction,Wind SpeedMPH,Gust SpeedMPH,PrecipitationIn,Events,Conditions,WindDirDegrees,DateUTC
12:53 AM,28.0,14.0,56,30.41,10.0,West,4.6,-,N/A,,Clear,270,2013-02-16 07:53:00
1:53 AM,27.0,15.1,61,30.42,10.0,WSW,3.5,-,N/A,,Clear,240,2013-02-16 08:53:00
2:53 AM,23.0,12.0,63,30.43,10.0,Calm,Calm,-,N/A,,Clear,0,2013-02-16 09:53:00
3:53 AM,19.9,12.9,74,30.45,10.0,Calm,Calm,-,N/A,,Clear,0,2013-02-16 10:53:00
4:53 AM,19.9,12.9,74,30.46,10.0,Calm,Calm,-,N/A,,Clear,0,2013-02-16 11:53:00
5:53 AM,19.0,12.9,77,30.49,10.0,ENE,6.9,-,N/A,,Clear,70,2013-02-16 12:53:00
6:53 AM,17.1,10.9,77,30.52,10.0,Calm,Calm,-,N/A,,Clear,0,2013-02-16 13:53:00
7:53 AM,23.0,15.1,72,30.53,10.0,East,4.6,-,N/A,,Clear,100,2013-02-16 14:53:00
8:53 AM,27.0,17.1,66,30.51,10.0,East,4.6,-,N/A,,Clear,90,2013-02-16 15:53:00
9:53 AM,30.9,17.1,57,30.51,10.0,SE,3.5,-,N/A,,Clear,130,2013-02-16 16:53:00
10:53 AM,36.0,16.0,44,30.48,10.0,Calm,Calm,-,N/A,,Clear,0,2013-02-16 17:53:00
11:53 AM,43.0,14.0,31,30.42,10.0,West,5.8,-,N/A,,Clear,270,2013-02-16 18:53:00
1:53 PM,50.0,12.0,22,30.30,10.0,West,11.5,-,N/A,,Clear,280,2013-02-16 20:53:00
2:53 PM,52.0,12.0,20,30.27,10.0,West,11.5,-,N/A,,Clear,270,2013-02-16 21:53:00
3:53 PM,52.0,10.0,19,30.27,10.0,West,10.4,18.4,N/A,,Clear,260,2013-02-16 22:53:00
4:53 PM,51.1,10.9,20,30.25,10.0,West,10.4,-,N/A,,Clear,280,2013-02-16 23:53:00
5:53 PM,45.0,9.0,23,30.26,10.0,West,6.9,-,N/A,,Clear,270,2013-02-17 00:53:00
6:53 PM,37.0,8.1,30,30.30,10.0,WSW,8.1,-,N/A,,Clear,240,2013-02-17 01:53:00
8:53 PM,36.0,10.0,34,30.25,10.0,Calm,Calm,-,N/A,,Clear,0,2013-02-17 03:53:00
9:53 PM,27.0,14.0,58,30.26,10.0,NNE,6.9,-,N/A,,Clear,30,2013-02-17 04:53:00
10:53 PM,25.0,15.1,66,30.24,10.0,NNE,4.6,-,N/A,,Clear,30,2013-02-17 05:53:00
11:53 PM,27.0,16.0,63,30.19,10.0,East,9.2,-,N/A,,Clear,90,2013-02-17 06:53:00